Regional Weather Roundup
Issued by NWS Little Rock, AR

Home | Current Version | Previous Version | Graphics & Text | Print | Product List | Glossary On
Versions: 1 2 3 4 5 6 7 8 9 10 11 12 13 14 15 16 17 18 19 20 21 22 23 24 25 26 27
000
ASUS44 KLZK 170405
RWRLZK

WEATHER ROUNDUP FOR ARKANSAS
NATIONAL WEATHER SERVICE LITTLE ROCK AR
1100 PM CDT WED APR 16 2014

NOTE: "FAIR" INDICATES FEW OR NO CLOUDS BELOW 12,000 FEET WITH NO
SIGNIFICANT WEATHER AND/OR OBSTRUCTIONS TO VISIBILITY.

ARZ001-003-010-029-170500-
NORTHWEST ARKANSAS

CITY           SKY/WX    TMP DP  RH WIND       PRES   REMARKS
FAYETTEVILLE   CLEAR     40  33  76 CALM      30.11R
FORT SMITH     CLEAR     53  33  46 CALM      30.11R
HARRISON       CLEAR     44  30  57 E3        30.12R
BENTONVILLE    CLEAR     45  30  57 S7        30.10R
ROGERS         CLEAR     50  30  46 SE10      30.10R
SILOAM SPGS    CLEAR     48  28  46 S7        30.11R
HIGHFILL       CLEAR     47  31  53 S7        30.09R
$$

ARZ004-005-016-170500-
NORTH CENTRAL ARKANSAS

CITY           SKY/WX    TMP DP  RH WIND       PRES   REMARKS
BATESVILLE     CLEAR     46  34  61 SE3       30.14R
FLIPPIN        CLEAR     48  25  40 CALM      30.13R
MTN HOME       CLEAR     47  28  47 SE3       30.12R
$$

ARZ040-041-170500-
WEST CENTRAL ARKANSAS

CITY           SKY/WX    TMP DP  RH WIND       PRES   REMARKS
MENA           CLEAR     41  36  81 CALM      30.10R
MOUNT IDA      CLEAR     47  36  65 CALM      30.08R
$$

ARZ009-017-025-026-028-170500-
NORTHEAST ARKANSAS

CITY           SKY/WX    TMP DP  RH WIND       PRES   REMARKS
CORNING        FAIR      46  37  71 SE6       30.15S
JONESBORO      CLEAR     43  36  76 CALM      30.15R
NEWPORT        CLEAR     48  38  68 S6        30.16R
WALNUT RIDGE   CLEAR     46  36  66 SE9       30.15R
BLYTHEVILLE    CLEAR     50  36  58 S5        30.16S
$$

ARZ022-023-033-042-044-170500-
CENTRAL ARKANSAS

CITY           SKY/WX    TMP DP  RH WIND       PRES   REMARKS
LITTLE ROCK    PTCLDY    49  37  63 SE6       30.15R
N LITTLE ROCK  PTCLDY    51  39  63 SE6       30.15R
JACKSONVILLE   CLEAR     42  39  87 NE2       30.15R
SEARCY         CLEAR     42  39  89 CALM      30.17R
HOT SPRINGS    CLEAR     49  34  56 E6        30.12R
RUSSELLVILLE   CLEAR     49  36  61 E3        30.12R
CLINTON        FAIR      39  37  93 CALM      30.15R
$$

ARZ036-170500-
EAST ARKANSAS

CITY           SKY/WX    TMP DP  RH WIND       PRES   REMARKS
WEST MEMPHIS   CLEAR     46  40  79 CALM      30.16R
$$

ARZ050-053-066-070-073-170500-
SOUTHWEST ARKANSAS

CITY           SKY/WX    TMP DP  RH WIND       PRES   REMARKS
ARKADELPHIA    FAIR      48  46  93 CALM      30.14R
CAMDEN         CLEAR     46  37  71 MISG      30.14R
TEXARKANA      CLEAR     50  36  58 SE3       30.10R
EL DORADO      CLEAR     47  39  74 E6        30.12R
DE QUEEN       CLEAR     43  40  89 E3        30.09R
$$

ARZ056-057-069-170500-
SOUTHEAST ARKANSAS

CITY           SKY/WX    TMP DP  RH WIND       PRES   REMARKS
PINE BLUFF     CLEAR     47  39  74 SE6       30.15R
STUTTGART      CLEAR     48  39  71 E6        30.16R
MONTICELLO     CLEAR     44  39  82 CALM      30.15R

$$





USA.gov is the U.S. government's official web portal to all federal, state and local government web resources and services.